Ma galerie photos

Petit reportage photos sur interprétation de quelques morceaux du "Messie" de Haendel ainsi que "Lumières" (messe baroque contemporaine) de J. Loussier par l'ensemble CAD Vocal.

Spectacle offert par la municipalité de Pourrières.

  • 20120804-200510-65674620.jpg 0 comments - 555 hits 20120804-200510-65674620.jpg
  • 20120804-200620-54888561.jpg 0 comments - 491 hits 20120804-200620-54888561.jpg
  • 20120804-200655-77963965.jpg 0 comments - 514 hits 20120804-200655-77963965.jpg
  • 20120804-200950-77299211.jpg 0 comments - 488 hits 20120804-200950-77299211.jpg
  • 20120804-201017-93028059.jpg 0 comments - 542 hits 20120804-201017-93028059.jpg
  • 20120804-201041-80332831.jpg 0 comments - 486 hits 20120804-201041-80332831.jpg
  • 20120804-201201-29324382.jpg 0 comments - 537 hits 20120804-201201-29324382.jpg
  • 20120804-201251-07445806.jpg 0 comments - 640 hits 20120804-201251-07445806.jpg
  • 20120804-212456-36555331.jpg 0 comments - 481 hits 20120804-212456-36555331.jpg
  • 20120804-213455-29082862.jpg 0 comments - 538 hits 20120804-213455-29082862.jpg
  • 20120804-213517-46855791.jpg 0 comments - 502 hits 20120804-213517-46855791.jpg
  • 20120804-213759-85169378.jpg 0 comments - 498 hits 20120804-213759-85169378.jpg
  • 20120804-213934-26045008.jpg 0 comments - 485 hits 20120804-213934-26045008.jpg
  • 20120804-214047-66778747.jpg 0 comments - 472 hits 20120804-214047-66778747.jpg
  • 20120804-214120-29567201.jpg 0 comments - 521 hits 20120804-214120-29567201.jpg
  • 20120804-214135-77095234.jpg 0 comments - 467 hits 20120804-214135-77095234.jpg
  • 20120804-214140-25266755.jpg 0 comments - 480 hits 20120804-214140-25266755.jpg
  • 20120804-214407-82839983.jpg 0 comments - 514 hits 20120804-214407-82839983.jpg
  • 20120804-214409-55442160.jpg 0 comments - 456 hits 20120804-214409-55442160.jpg
  • 20120804-214414-56896919.jpg 0 comments - 611 hits 20120804-214414-56896919.jpg
  • 20120804-214805-55389656.jpg 0 comments - 458 hits 20120804-214805-55389656.jpg
  • 20120804-214851-42515345.jpg 0 comments - 474 hits 20120804-214851-42515345.jpg
  • 20120804-214900-10786369.jpg 0 comments - 480 hits 20120804-214900-10786369.jpg
  • 20120804-214947-85886611.jpg 0 comments - 517 hits 20120804-214947-85886611.jpg
  • 20120804-215008-07774566.jpg 0 comments - 561 hits 20120804-215008-07774566.jpg
  • 20120804-215338-62453715.jpg 0 comments - 529 hits 20120804-215338-62453715.jpg
  • 20120804-215422-53574666.jpg 0 comments - 455 hits 20120804-215422-53574666.jpg
  • 20120804-215546-80447053.jpg 0 comments - 448 hits 20120804-215546-80447053.jpg
  • 20120804-215816-09355136.jpg 0 comments - 477 hits 20120804-215816-09355136.jpg
  • 20120804-215846-58276575.jpg 0 comments - 515 hits 20120804-215846-58276575.jpg
  • 20120804-215902-32599536.jpg 0 comments - 551 hits 20120804-215902-32599536.jpg
  • 20120804-220241-65578350.jpg 0 comments - 514 hits 20120804-220241-65578350.jpg
  • 20120804-220246-62316866.jpg 0 comments - 513 hits 20120804-220246-62316866.jpg
  • 20120804-220248-55353763.jpg 0 comments - 544 hits 20120804-220248-55353763.jpg
  • 20120804-220322-70446899 0 comments - 927 hits 20120804-220322-70446899
  • 20120804-220414-34516501.jpg 0 comments - 486 hits 20120804-220414-34516501.jpg
  • 20120804-220421-69940663.jpg 0 comments - 486 hits 20120804-220421-69940663.jpg
  • 20120804-220800-78914313.jpg 0 comments - 455 hits 20120804-220800-78914313.jpg
  • 20120804-221736-64483228.jpg 0 comments - 465 hits 20120804-221736-64483228.jpg
  • 20120804-221744-88378101.jpg 0 comments - 534 hits 20120804-221744-88378101.jpg
  • 20120804-221748-52908151.jpg 0 comments - 462 hits 20120804-221748-52908151.jpg
  • 20120804-221809-45783891.jpg 0 comments - 455 hits 20120804-221809-45783891.jpg
  • 20120804-221818-06241869.jpg 0 comments - 535 hits 20120804-221818-06241869.jpg
  • 20120804-222000-12390062.jpg 0 comments - 484 hits 20120804-222000-12390062.jpg
  • 20120804-222753-72819358.jpg 0 comments - 448 hits 20120804-222753-72819358.jpg
  • 20120804-222823-98162851.jpg 0 comments - 495 hits 20120804-222823-98162851.jpg
  • 20120804-223559-49487616.jpg 0 comments - 464 hits 20120804-223559-49487616.jpg
  • 20120804-223615-71555171.jpg 0 comments - 443 hits 20120804-223615-71555171.jpg
  • 20120804-223638-50565118.jpg 0 comments - 454 hits 20120804-223638-50565118.jpg
  • 20120804-223640-05828305.jpg 0 comments - 472 hits 20120804-223640-05828305.jpg
  • 20120804-223648-52542121.jpg 0 comments - 472 hits 20120804-223648-52542121.jpg
  • 20120804-223649-85683598.jpg 0 comments - 447 hits 20120804-223649-85683598.jpg
  • 20120804-223651-12168000.jpg 0 comments - 443 hits 20120804-223651-12168000.jpg
  • 20120804-223707-88050310.jpg 0 comments - 561 hits 20120804-223707-88050310.jpg
  • 20120804-223717-07639325.jpg 0 comments - 451 hits 20120804-223717-07639325.jpg
  • 20120804-223819-45851602.jpg 0 comments - 485 hits 20120804-223819-45851602.jpg
  • 20120804-223821-60148427.jpg 0 comments - 516 hits 20120804-223821-60148427.jpg
  • 20120804-224307-24306268.jpg 0 comments - 507 hits 20120804-224307-24306268.jpg
  • 20120804-224312-95093439.jpg 0 comments - 455 hits 20120804-224312-95093439.jpg
  • 20120804-225734-02783263.jpg 0 comments - 499 hits 20120804-225734-02783263.jpg
  • 20120804-225740-16424243.jpg 0 comments - 534 hits 20120804-225740-16424243.jpg
  • 20120804-225813-20601569.jpg 0 comments - 534 hits 20120804-225813-20601569.jpg
  • 20120804-225821-14148191.jpg 0 comments - 512 hits 20120804-225821-14148191.jpg
  • 20120804-225901-34170528.jpg 0 comments - 516 hits 20120804-225901-34170528.jpg
  • CAD Vocal 2012 Pourrières 02 0 comments - 366 hits CAD Vocal 2012 Pourrières 02
  • CAD Vocal 2012 Pourrières 01 0 comments - 353 hits CAD Vocal 2012 Pourrières 01
  • CAD Vocal 2012 Pourrières 03 0 comments - 530 hits CAD Vocal 2012 Pourrières 03

2 comments

Subscribe to mail notifications
  • webmaster - Sunday 05 August 2012 23:39Reply
    Salut David,

    Dans photo-journalisme il y a "journalisme" et ça je ne sais pas faire. Ecrire un papier ca demande une certaine réflexion et je préfère coucher des images que des textes ^_^
    Et puis là j'ai fait le boulet sur le coup car je me suis assis au premier rang et je n'ai plus bougé ! Or ca aurait été très bien si j'avais levé mon fessier. J'étais en mode "touriste" et non "paparazzi" :sourire:
  • David Garait - Sunday 05 August 2012 22:26Reply
    Salut Julien,
    Tu devrais faire photo journaliste, car je trouve que tu excelle pour faire vivre un événement au travers de tes images. C'est quelque chose que je fais très mal et que toi tu maitrise parfaitement. Je note ici la série et je dois admettre que j'aime beaucoup. Bravo continue
Add a comment